OpenBCM V1.13 (Linux)

Packet Radio Mailbox

DB0FHN

[JN59NK Nuernberg]

 Login: GUEST





  
LU9DCE > KEP      02.06.19 20:34l 245 Lines 12094 Bytes #999 (0) @ WW
BID : 25934_LU9DCE
Read: DF7EAV DJ6UX GUEST
Subj: TLE 02 06
Path: DB0FHN<DB0BLO<DB0ERF<DB0RES<IR2UBX<IW2OHX<IQ2LB<IR2UFV<N3HYM<LU9DCE
Sent: 190602/1800Z 25934@LU9DCE.TOR.BA.ARG.SOAM LinBPQ6.0.18

            __    _  _  ___  ____   ___  ____    ____  ____  ____
           (  )  / )( \/ _ \(    \ / __)(  __)  (  _ \(  _ \/ ___)
           / (_/\) \/ (\__  )) D (( (__  ) _)    ) _ ( ) _ (\___ \
           \____/\____/(___/(____/ \___)(____)  (____/(____/(____/
               ESTACION DE PACKET RADIO - BUENOS AIRES (GF05OM)
                   BOLETINES INFORMATIVOS PROGRAMADOS (BIP)
                  SLACKWARE LINUX - HELLOCODELINUX@GMAIL.COM

+----------------------------------------------------------------------------+
OSCAR 7
1  7530U 74089B   19152.86563536 -.00000049 +00000-0 -24516-4 0  9990
2  7530 101.7426 120.6998 0012420 021.5075 032.3794 12.53638283038170
OSCAR 11 (UoSAT 2)
1 14781U 84021B   19153.10296606  .00000055  00000-0  12900-4 0  9991
2 14781  97.6118 178.6052 0009021  24.2816 335.8822 14.83087465896302
OSCAR 19 (LUSAT)
1 20442U 90005G   19152.91060605 -.00000028 +00000-0 +58950-5 0  9994
2 20442 098.6478 094.9396 0011373 193.6128 166.4750 14.32925935533914
EYESAT A
1 22825U 93061C   19153.19769628 -.00000010  00000-0  14201-4 0  9999
2 22825  98.9024 141.4590 0009296  51.7225 308.4792 14.30059534339591
ITAMSAT
1 22826U 93061D   19152.92340410 -.00000007 +00000-0 +15321-4 0  9994
2 22826 098.8964 141.1721 0009674 042.1986 317.9939 14.30393046339503
RADIO ROSTO
1 23439U 94085A   19152.84229538 -.00000036  00000-0  17571-3 0  9990
2 23439  64.8134 143.3723 0146333 116.5203 245.0808 11.27568147  6151
JAS 2
1 24278U 96046B   19152.91198824 -.00000027 +00000-0 +12055-4 0  9995
2 24278 098.5346 308.6006 0349309 283.5856 072.6609 13.53091342125287
TECHSAT 1B
1 25397U 98043D   19152.89264526 -.00000026 +00000-0 +76823-5 0  9990
2 25397 098.6880 093.2411 0002434 086.6319 273.5138 14.23665950085264
ISS (ZARYA)
1 25544U 98067A   19153.54200231 -.00002258  00000-0 -30105-4 0  9998
2 25544  51.6440  73.9800 0007568   5.8530 338.9083 15.51157944172978
PCSAT
1 26931U 01043C   19152.93099266 -.00000029 +00000-0 +20731-4 0  9990
2 26931 067.0526 046.9315 0006484 279.8348 080.2021 14.30543204922507
SAUDISAT 1C
1 27607U 02058C   19153.21294621 -.00000047  00000-0  14394-4 0  9990
2 27607  64.5549  99.9774 0081855 259.7086  99.4780 14.75549405884603
CUTE-1
1 27844U 03031E   19152.83830725 +.00000043 +00000-0 +39241-4 0  9996
2 27844 098.6839 161.3038 0011112 081.4203 278.8233 14.22178809825859
CUBESAT XI 4
1 27848U 03031J   19153.52938946  .00000029  00000-0  32781-4 0  9997
2 27848  98.6917 162.4811 0011007  89.7478 270.4961 14.21773809825844
MOZHAYETS 4
1 27939U 03042A   19153.53953001  .00000036  00000-0  15092-4 0  9994
2 27939  98.0376 289.6722 0014177 116.6596 243.6060 14.66782107838175
CUBESAT XI 5
1 28895U 05043F   19152.89631413 +.00000082 +00000-0 +24487-4 0  9996
2 28895 097.9567 296.2056 0017789 048.4291 311.8433 14.63664148724792
CUTE-1.7+APD II
1 32785U 08021C   19153.48256690  .00000157  00000-0  22579-4 0  9997
2 32785  97.5492 153.9618 0012069 322.6678  37.3699 14.88303826601274
DELFI C3
1 32789U 08021G   19152.68559216 +.00001366 +00000-0 +95406-4 0  9994
2 32789 097.4655 202.8635 0012465 175.9073 184.2259 15.06915236604305
SEEDS
1 32791U 08021J   19153.52828431  .00000123  00000-0  17890-4 0  9990
2 32791  97.5279 159.9621 0011823 295.0027  64.9964 14.90811059601706
YUBELEINY
1 32953U 08025A   19153.54779138  .00000020  00000-0  75656-4 0  9995
2 32953  82.5005 154.8055 0019504 160.4187 199.7650 12.43089755500307
PRISM (HITOMI)
1 33493U 09002B   19152.81429880 +.00000028 +00000-0 +80390-5 0  9996
2 33493 098.1232 073.1287 0013603 237.2428 122.7482 14.96640949562616
KKS-1 (KISEKI)
1 33499U 09002H   19153.53429475  .00000075  00000-0  19183-4 0  9995
2 33499  98.3512 351.7264 0007891 256.5292 103.5037 14.75437781556846
SWISSCUBE
1 35932U 09051B   19152.90081013 +.00000110 +00000-0 +35960-4 0  9996
2 35932 098.5863 318.3842 0007009 208.5673 151.5141 14.56280034514291
BEESAT
1 35933U 09051C   19153.04222141  .00000088  00000-0  30800-4 0  9994
2 35933  98.5891 320.2801 0004999 220.2173 139.8654 14.56369822514461
ITUPSAT 1
1 35935U 09051E   19153.15904095  .00000052  00000-0  23124-4 0  9995
2 35935  98.6002 320.6396 0007327 219.6989 140.3672 14.55530427514238
XIWANG-1 (HOPE-1)
1 36122U 09072B   19152.86271208 -.00000026  00000-0  43380-4 0  9995
2 36122 100.0719 156.0334 0008415  27.7747 332.3812 13.16349854454669
TISAT 1
1 36799U 10035E   19152.90587109 +.00000383 +00000-0 +44763-4 0  9992
2 36799 098.1536 304.5040 0013287 136.7589 223.4674 14.91092144482067
JUGNU
1 37839U 11058B   19151.17181646 +.00000287 +00000-0 +11344-4 0  9990
2 37839 019.9608 087.0789 0019202 123.0976 009.7375 14.12651241394527
SRMSAT
1 37841U 11058D   19153.13115858  .00000291  00000-0  14744-4 0  9995
2 37841  19.9709 131.6310 0011836  15.8079 253.9279 14.10632741394354
M-CUBED/EXP-1 PRIME
1 37855U 11061F   19152.71796847  .00000688  00000-0  42391-4 0  9999
2 37855 101.7167  39.6045 0173762 127.0899 234.6339 15.05371410414222
HORYU 2
1 38340U 12025D   19152.89565642  .00000133  00000-0  27454-4 0  9994
2 38340  98.3302 190.9813 0011776 171.0799 189.0621 14.75712877378680
STRAND 1
1 39090U 13009E   19153.54082781  .00000033  00000-0  26734-4 0  9990
2 39090  98.4899 359.7699 0008818 344.8246  15.2673 14.35085106328071
SOMP
1 39134U 13015E   19152.91290023 +.00000901 +00000-0 +50609-4 0  9998
2 39134 064.8640 074.7954 0029045 306.9949 052.8520 15.20117432337669
BEESAT 3
1 39135U 13015F   19152.93713445 +.00000859 +00000-0 +52478-4 0  9997
2 39135 064.8679 092.7800 0018560 324.4519 035.5369 15.17428767337313
BEESAT 2
1 39136U 13015G   19152.90190298 +.00000600 +00000-0 +40245-4 0  9993
2 39136 064.8690 096.6657 0018531 304.6614 055.2764 15.16861727337239
CUBEBUG 1
1 39153U 13018D   19153.47566195  .00000114  00000-0  21891-4 0  9997
2 39153  97.9772 251.6927 0015618 249.1447 110.8093 14.80560711329412
ZACUBE
1 39417U 13066B   19153.49109474  .00000165  00000-0  26957-4 0  9992
2 39417  97.5629 167.9030 0060590  87.2564 273.5582 14.81107427298648
TRITON 1
1 39427U 13066M   19152.95838591 +.00000145 +00000-0 +31235-4 0  9995
2 39427 097.6748 131.3718 0112784 218.4917 140.8207 14.67832817295697
GOMX 1
1 39430U 13066Q   19153.50864328  .00000168  00000-0  39909-4 0  9999
2 39430  97.7446 111.1270 0150277 305.7196  53.0095 14.59246160294245
HUMSAT D
1 39433U 13066T   19152.91646383 +.00000129 +00000-0 +17965-4 0  9990
2 39433 097.5549 201.1061 0030628 359.9291 000.1918 14.92176747299390
CUBEBUG 2
1 39440U 13066AA  19152.93698814 +.00000160 +00000-0 +29041-4 0  9999
2 39440 097.6017 152.3643 0081308 138.5520 222.1897 14.75845826296301
FUNCUBE 1
1 39444U 13066AE  19153.50059703  .00000204  00000-0  31253-4 0  9992
2 39444  97.5610 169.8413 0059710  81.3631 279.4341 14.81924304297532
UWE-3
1 39446U 13066AG  19153.30827068  .00000124  00000-0  23006-4 0  9997
2 39446  97.5794 159.7133 0071256 112.6973 248.1742 14.78379643296847
SPROUT
1 39770U 14029E   19153.28347740  .00000630  00000-0  75847-4 0  9990
2 39770  97.8829 256.6851 0009607 132.2767 227.9262 14.87320657272390
UNISAT 6
1 40012U 14033C   19153.51907844  .00000142  00000-0  28538-4 0  9992
2 40012  97.7598  20.8263 0059024 148.7786 211.6951 14.73970623266300
DUCHIFAT 1
1 40021U 14033M   19152.82934230  .00000197  00000-0  25974-4 0  9995
2 40021  97.9242  77.3673 0014369 103.6741 256.6078 14.90614342269038
QB50P1
1 40025U 14033R   19152.83221777  .00000171  00000-0  24229-4 0  9999
2 40025  97.9068  72.5430 0013812 112.0583 248.2102 14.88932486268815
CHUBUSAT 1
1 40300U 14070C   19153.21987359  .00000597  00000-0  28954-4 0  9995
2 40300  97.3262 227.8166 0020981 111.2653 311.4568 15.22062253253511
NUDT-PHONESAT
1 40900U 15049B   19153.54872725  .00001899  00000-0  84358-4 0  9990
2 40900  97.4376 163.0424 0011147 239.0413 240.9057 15.22720217205202
ZDPS 2A
1 40901U 15049C   19153.52850903  .00000784  00000-0  42188-4 0  9990
2 40901  97.4591 159.5863 0011746 259.1030 218.7105 15.17696587204787
ZDPS 2B
1 40902U 15049D   19153.48633813  .00001104  00000-0  58394-4 0  9998
2 40902  97.4540 157.0764 0011696 256.6617 223.9239 15.17501684204758
XW-2A
1 40903U 15049E   19153.43007659  .00001785  00000-0  44138-4 0  9993
2 40903  97.3397 196.1016 0012817 197.4438 290.0813 15.41783121207741
KAITUO 1A
1 40904U 15049F   19153.49564359  .00000261  00000-0  17314-4 0  9999
2 40904  97.4663 155.7825 0012885 265.3165 222.9638 15.15346266204545
OBJECT G
1 40905U 15049G   19153.49642721  .00000066  00000-0  72136-5 0  9997
2 40905  97.4703 153.3589 0013920 258.6950 218.5392 15.14274229204423
XW-2C
1 40906U 15049H   19153.50020226  .00000334  00000-0  21023-4 0  9996
2 40906  97.4669 155.8469 0013198 255.2272 234.4976 15.15649874204547
XW-2D
1 40907U 15049J   19153.54329933  .00000746  00000-0  42471-4 0  9995
2 40907  97.4650 155.5673 0012363 252.3824 223.5877 15.15838585204566
LILACSAT 2
1 40908U 15049K   19153.53590676  .00000615  00000-0  37632-4 0  9997
2 40908  97.4780 154.4430 0014276 258.1157 218.9078 15.13790105204360
XW-2F
1 40910U 15049M   19153.52086288  .00000877  00000-0  47393-4 0  9993
2 40910  97.4613 157.4909 0013190 244.0806 234.2824 15.17257778204561
XW-2B
1 40911U 15049N   19153.50948789  .00000355  00000-0  22059-4 0  9998
2 40911  97.4666 156.1782 0012444 252.7525 224.7248 15.15766622204453
KAITUO 1B
1 40912U 15049P   19153.51093397  .00000839  00000-0  42628-4 0  9997
2 40912  97.4504 161.0757 0013524 225.0513 255.3920 15.19562150204857
TIANWANG 1C (TW-1C)
1 40926U 15051B   19153.39370370  .00010757  00000-0  15919-3 0  9992
2 40926  97.1378 199.5926 0009839  76.0044 115.3024 15.55409542207622
